Weather History for KBML - January, 2000

Change the Weather History Date:

Monday, January 17, 2000

  Actual Average Record
Temperature  
Mean Temperature -9 °F -  
Max Temperature 0 °F 19 °F 39 °F (2014)
Min Temperature -20 °F 0 °F -31 °F (2009)
Degree Days  
Heating Degree Days 74    
Moisture  
Dew Point -19 °F    
Average Humidity 63    
Maximum Humidity 79    
Minimum Humidity 53    
Precipitation  
Precipitation 0.00 in - - ()
Sea Level Pressure  
Sea Level Pressure 30.23 in    
Wind  
Wind Speed 11 mph (NW)    
Max Wind Speed 21 mph    
Max Gust Speed 29 mph    
Visibility 8 miles    
Events Snow    
Averages and records for this station are not official NWS values.
T = Trace of Precipitation, MM = Missing Value Source: NWS Daily Summary

Daily Weather History Graph

Daily Weather History Graph

Search for Another Location

Airport or City:

Trip Planner

Search our weather history database for the weather conditions in past years. The results will help you decide how hot, cold, wet, or windy it might be!

Date:

Astronomy

Jan. 17, 2000 Rise Set
Actual Time 7:17 AM EST 4:32 PM EST
Civil Twilight 6:44 AM EST 5:04 PM EST
Nautical Twilight 6:08 AM EST 5:40 PM EST
Astronomical Twilight 5:34 AM EST 6:15 PM EST
Moon 1:19 PM EST (1/17) 3:13 AM EST (1/17)
Length of Visible Light 10h 19m
Length of Day
9h 15m
Waxing Gibbous, 83% of the Moon is Illuminated
Jan 17
Waxing Gibbous
Jan 20
Full
Jan 28
Last Quarter
Feb 5
New
Feb 12
First Quarter

Hourly Weather History & Observations

Time (EST) Temp. Windchill Dew Point Humidity Pressure Visibility Wind Dir Wind Speed Gust Speed Precip Events Conditions
12:52 AM -0.9 °F -20.6 °F -11.9 °F 60% 30.04 in 7.0 mi WNW 15.0 mph 24.2 mph 0.00 in   Overcast
1:52 AM -4.0 °F -27.6 °F -15.0 °F 59% 30.07 in 4.0 mi NW 20.7 mph 28.8 mph 0.00 in   Overcast
2:18 AM -4.0 °F -23.0 °F -14.8 °F 60% 29.99 in 5.0 mi NW 12.7 mph - 0.00 in   Haze
2:52 AM -6.0 °F -22.6 °F -16.1 °F 62% 30.09 in 8.0 mi WNW 9.2 mph 17.3 mph 0.00 in   Overcast
3:03 AM -5.8 °F -26.0 °F -16.6 °F 60% 30.00 in 7.0 mi NW 13.8 mph 21.9 mph N/A   Overcast
3:45 AM -7.6 °F -29.1 °F -18.4 °F 59% 30.02 in 8.0 mi NW 15.0 mph 26.5 mph 0.00 in   Overcast
3:52 AM -8.0 °F -28.0 °F -18.0 °F 61% 30.11 in 7.0 mi NNW 12.7 mph 27.6 mph 0.00 in   Overcast
4:21 AM -9.4 °F -31.4 °F -18.4 °F 65% 30.04 in 4.0 mi NW 15.0 mph 28.8 mph 0.00 in Snow Light Snow
4:52 AM -9.0 °F -30.2 °F -20.0 °F 59% 30.15 in 7.0 mi NW 13.8 mph 23.0 mph 0.00 in   Overcast
5:52 AM -9.9 °F -34.2 °F -20.9 °F 59% 30.17 in 5.0 mi NW 18.4 mph 28.8 mph 0.00 in   Overcast
6:52 AM -11.0 °F -27.6 °F -22.0 °F 58% 30.21 in 10.0 mi NW 8.1 mph - 0.00 in   Overcast
7:52 AM -11.9 °F -33.0 °F -22.0 °F 61% 30.25 in 10.0 mi WNW 12.7 mph 17.3 mph N/A   Overcast
8:44 AM -11.2 °F -30.1 °F -23.8 °F 54% 30.18 in 6.0 mi NW 10.4 mph 18.4 mph N/A   Haze
8:52 AM -11.9 °F -31.0 °F -23.1 °F 58% 30.29 in 5.0 mi NNW 10.4 mph - N/A   Haze
9:41 AM -11.2 °F -29.0 °F -20.2 °F 64% 30.21 in 2.5 mi NNW 9.2 mph 17.3 mph 0.00 in Snow Light Snow
9:52 AM -11.0 °F -29.9 °F -20.9 °F 62% 30.32 in 4.0 mi NNW 10.4 mph - 0.00 in   Haze
10:52 AM -11.0 °F -28.8 °F -23.1 °F 55% 30.32 in 7.0 mi NNW 9.2 mph - N/A   Overcast
11:39 AM -7.6 °F -22.1 °F -20.2 °F 54% 30.19 in 9.0 mi NNW 6.9 mph - 0.00 in   Mostly Cloudy
11:52 AM -7.1 °F -22.8 °F -20.0 °F 53% 30.30 in 10.0 mi NW 8.1 mph - 0.00 in   Partly Cloudy
12:52 PM -7.1 °F -23.9 °F -18.9 °F 56% 30.29 in 10.0 mi NW 9.2 mph 18.4 mph 0.00 in   Mostly Cloudy
1:52 PM -7.1 °F -23.9 °F -18.0 °F 59% 30.30 in 10.0 mi West 9.2 mph - N/A   Overcast
1:59 PM -7.6 °F -26.6 °F -18.4 °F 59% 30.19 in 9.0 mi West 11.5 mph 18.4 mph N/A   Overcast
2:52 PM -7.1 °F -25.0 °F -17.0 °F 62% 30.32 in 10.0 mi WNW 10.4 mph - N/A   Overcast
3:28 PM -5.8 °F -21.2 °F -16.6 °F 60% 30.21 in 10.0 mi WNW 8.1 mph - N/A   Scattered Clouds
3:52 PM -8.0 °F -27.1 °F -17.0 °F 65% 30.33 in 10.0 mi WNW 11.5 mph 16.1 mph N/A   Clear
4:52 PM -9.0 °F -22.3 °F -18.0 °F 65% 30.36 in 10.0 mi Variable 5.8 mph - N/A   Clear
5:52 PM -9.9 °F -28.6 °F -20.0 °F 61% 30.38 in 10.0 mi NW 10.4 mph 17.3 mph N/A   Clear
6:19 PM -9.4 °F -24.3 °F -18.4 °F 65% 30.26 in 10.0 mi Variable 6.9 mph - N/A   Mostly Cloudy
6:26 PM -9.4 °F -25.6 °F -18.4 °F 65% 30.26 in 10.0 mi NW 8.1 mph - N/A   Scattered Clouds
6:40 PM -9.4 °F -24.3 °F -18.4 °F 65% 30.27 in 10.0 mi WNW 6.9 mph - N/A   Mostly Cloudy
6:52 PM -9.9 °F -23.4 °F -18.0 °F 68% 30.39 in 8.0 mi NW 5.8 mph - N/A   Overcast
7:52 PM -11.9 °F - -18.9 °F 71% 30.39 in 8.0 mi Calm Calm - N/A   Overcast
8:52 PM -15.0 °F - -20.0 °F 78% 30.38 in 6.0 mi Calm Calm - N/A   Haze
9:52 PM -17.0 °F - -22.0 °F 78% 30.37 in 6.0 mi Calm Calm - N/A   Haze
10:24 PM -18.4 °F -28.9 °F -23.8 °F 76% 30.23 in 6.0 mi ENE 3.5 mph - N/A   Haze
10:52 PM -16.1 °F - -20.9 °F 79% 30.35 in 6.0 mi Calm Calm - N/A   Haze
11:52 PM -20.0 °F - -25.1 °F 78% 30.33 in 7.0 mi Calm Calm - N/A   Scattered Clouds